EZY43DN EGKK-EGJJ

Flight info

Callsign EZY43DN
Flight time 0h 31m
Altitude 20000
Route NOVMA L620 SAM N63 LELNA
Aircraft A320/M-SDE2E3FGHIJ1RWXYZ/LB1

Departure

Time 2026-04-17 21:07
Airport London Gatwick Airport (EGKK)

Arrival

Time 2026-04-17 21:39
Airport Jersey Airport (EGJJ)
Time Latitude Longitude Altitude Speed Heading
2026-04-17 20:49 51.15861 -0.17938 204 ft 0 kts 78°
2026-04-17 20:57 51.15856 -0.17974 212 ft 4 kts 78°
2026-04-17 20:58 51.15852 -0.18002 204 ft 4 kts 78°
2026-04-17 20:58 51.15846 -0.18056 216 ft 4 kts 100°
2026-04-17 20:58 51.15857 -0.18083 210 ft 3 kts 167°
2026-04-17 20:58 51.15875 -0.18090 214 ft 1 kts 168°
2026-04-17 20:59 51.15876 -0.18090 213 ft 0 kts 168°
2026-04-17 21:01 51.15873 -0.18089 204 ft 2 kts 168°
2026-04-17 21:01 51.15848 -0.18080 206 ft 5 kts 167°
2026-04-17 21:02 51.15798 -0.18062 207 ft 10 kts 168°
2026-04-17 21:02 51.15725 -0.18037 207 ft 8 kts 168°
2026-04-17 21:02 51.15716 -0.18033 207 ft 2 kts 161°
2026-04-17 21:02 51.15699 -0.17981 205 ft 9 kts 97°
2026-04-17 21:03 51.15714 -0.17840 204 ft 16 kts 78°
2026-04-17 21:03 51.15741 -0.17655 208 ft 17 kts 77°
2026-04-17 21:03 51.15729 -0.17503 208 ft 14 kts 149°
2026-04-17 21:03 51.15631 -0.17467 212 ft 15 kts 168°
2026-04-17 21:04 51.15530 -0.17432 207 ft 15 kts 167°
2026-04-17 21:04 51.15427 -0.17396 211 ft 16 kts 168°
2026-04-17 21:04 51.15313 -0.17356 211 ft 18 kts 167°
2026-04-17 21:04 51.15237 -0.17308 214 ft 18 kts 144°
2026-04-17 21:05 51.15183 -0.17169 207 ft 12 kts 81°
2026-04-17 21:05 51.15201 -0.17041 210 ft 11 kts 77°
2026-04-17 21:05 51.15217 -0.16929 214 ft 10 kts 77°
2026-04-17 21:05 51.15224 -0.16833 204 ft 8 kts 98°
2026-04-17 21:06 51.15186 -0.16792 205 ft 8 kts 166°
2026-04-17 21:06 51.15120 -0.16816 208 ft 12 kts 248°
2026-04-17 21:06 51.15102 -0.16940 203 ft 10 kts 257°
2026-04-17 21:06 51.15078 -0.17114 204 ft 27 kts 258°
2026-04-17 21:07 51.14987 -0.17777 211 ft 96 kts 257°
2026-04-17 21:07 51.14801 -0.19131 207 ft 151 kts 258°
2026-04-17 21:07 51.14573 -0.20848 724 ft 157 kts 256°
2026-04-17 21:07 51.14332 -0.22612 1165 ft 172 kts 255°
2026-04-17 21:08 51.14056 -0.24592 1424 ft 194 kts 256°
2026-04-17 21:08 51.13744 -0.26823 1628 ft 218 kts 256°
2026-04-17 21:08 51.13399 -0.29285 1978 ft 234 kts 256°
2026-04-17 21:08 51.13042 -0.31839 2586 ft 238 kts 256°
2026-04-17 21:09 51.12682 -0.34408 3253 ft 239 kts 256°
2026-04-17 21:09 51.12321 -0.37003 3866 ft 241 kts 256°
2026-04-17 21:09 51.11957 -0.39623 4437 ft 244 kts 256°
2026-04-17 21:09 51.11586 -0.42273 5004 ft 246 kts 253°
2026-04-17 21:10 51.10925 -0.44785 5546 ft 248 kts 243°
2026-04-17 21:10 51.10154 -0.47253 6104 ft 250 kts 243°
2026-04-17 21:10 51.09378 -0.49740 6643 ft 252 kts 243°
2026-04-17 21:10 51.08593 -0.52250 7156 ft 254 kts 243°
2026-04-17 21:11 51.07802 -0.54773 7679 ft 256 kts 243°
2026-04-17 21:11 51.07007 -0.57313 8187 ft 258 kts 243°
2026-04-17 21:11 51.06209 -0.59875 8680 ft 259 kts 243°
2026-04-17 21:11 51.05443 -0.62481 9186 ft 262 kts 249°
2026-04-17 21:12 51.05008 -0.65307 9663 ft 265 kts 256°
2026-04-17 21:12 51.04625 -0.68182 10134 ft 267 kts 256°
2026-04-17 21:12 51.04239 -0.71066 10570 ft 268 kts 256°
2026-04-17 21:12 51.03850 -0.73968 10993 ft 269 kts 256°
2026-04-17 21:13 51.03456 -0.76901 11310 ft 275 kts 256°
2026-04-17 21:13 51.03046 -0.79933 11437 ft 286 kts 256°
2026-04-17 21:13 51.02618 -0.83077 11565 ft 295 kts 256°
2026-04-17 21:13 51.02179 -0.86306 11696 ft 303 kts 256°
2026-04-17 21:14 51.01749 -0.89483 12520 ft 283 kts 256°
2026-04-17 21:14 51.01359 -0.92380 13558 ft 261 kts 256°
2026-04-17 21:14 51.00991 -0.95096 14574 ft 246 kts 255°
2026-04-17 21:14 51.00608 -0.97881 15052 ft 270 kts 255°
2026-04-17 21:15 51.00185 -1.00928 15519 ft 293 kts 255°
2026-04-17 21:15 50.99728 -1.04225 15893 ft 318 kts 255°
2026-04-17 21:15 50.99234 -1.07785 16193 ft 342 kts 255°
2026-04-17 21:15 50.98706 -1.11602 16389 ft 365 kts 255°
2026-04-17 21:16 50.98146 -1.15649 16520 ft 385 kts 255°
2026-04-17 21:16 50.97561 -1.19871 16813 ft 397 kts 255°
2026-04-17 21:16 50.96964 -1.24182 17329 ft 402 kts 255°
2026-04-17 21:16 50.96316 -1.28504 17871 ft 403 kts 250°
2026-04-17 21:17 50.95117 -1.32496 18364 ft 403 kts 236°
2026-04-17 21:17 50.93276 -1.35845 18816 ft 406 kts 221°
2026-04-17 21:17 50.90887 -1.38261 19220 ft 410 kts 210°
2026-04-17 21:17 50.88344 -1.40341 19625 ft 412 kts 209°
2026-04-17 21:18 50.85777 -1.42383 20023 ft 413 kts 209°
2026-04-17 21:18 50.83202 -1.44408 20166 ft 413 kts 209°
2026-04-17 21:18 50.80624 -1.46429 20190 ft 413 kts 209°
2026-04-17 21:18 50.78051 -1.48448 20190 ft 413 kts 209°
2026-04-17 21:19 50.75481 -1.50472 20190 ft 412 kts 209°
2026-04-17 21:19 50.72917 -1.52500 20190 ft 412 kts 209°
2026-04-17 21:19 50.70352 -1.54533 20191 ft 412 kts 209°
2026-04-17 21:19 50.67789 -1.56565 20194 ft 412 kts 209°
2026-04-17 21:20 50.65226 -1.58592 20195 ft 412 kts 209°
2026-04-17 21:20 50.62662 -1.60620 20175 ft 412 kts 209°
2026-04-17 21:20 50.60095 -1.62650 20187 ft 413 kts 209°
2026-04-17 21:20 50.57527 -1.64677 20196 ft 413 kts 209°
2026-04-17 21:21 50.54960 -1.66695 20195 ft 406 kts 209°
2026-04-17 21:21 50.52499 -1.68616 20196 ft 384 kts 209°
2026-04-17 21:21 50.50172 -1.70425 20197 ft 363 kts 209°
2026-04-17 21:21 50.47973 -1.72137 20197 ft 344 kts 210°
2026-04-17 21:22 50.45887 -1.73764 20197 ft 326 kts 210°
2026-04-17 21:22 50.43897 -1.75318 20198 ft 315 kts 210°
2026-04-17 21:22 50.41842 -1.76491 20199 ft 318 kts 195°
2026-04-17 21:22 50.39659 -1.77049 20194 ft 319 kts 194°
2026-04-17 21:23 50.37464 -1.77581 20203 ft 319 kts 194°
2026-04-17 21:23 50.35270 -1.78103 20204 ft 319 kts 194°
2026-04-17 21:23 50.33075 -1.78621 20204 ft 319 kts 194°
2026-04-17 21:23 50.30906 -1.79133 20207 ft 319 kts 194°
2026-04-17 21:24 50.28714 -1.79654 20204 ft 319 kts 194°
2026-04-17 21:24 50.26518 -1.80178 20204 ft 319 kts 194°
2026-04-17 21:24 50.24324 -1.80703 20205 ft 319 kts 194°
2026-04-17 21:24 50.22130 -1.81229 20214 ft 319 kts 194°
2026-04-17 21:25 50.19934 -1.81756 20214 ft 319 kts 194°
2026-04-17 21:25 50.17743 -1.82280 20137 ft 317 kts 194°
2026-04-17 21:25 50.15592 -1.82788 19881 ft 309 kts 194°
2026-04-17 21:25 50.13492 -1.83281 19647 ft 302 kts 194°
2026-04-17 21:26 50.11437 -1.83764 19413 ft 295 kts 194°
2026-04-17 21:26 50.09433 -1.84238 19171 ft 289 kts 194°
2026-04-17 21:26 50.07464 -1.84705 18961 ft 282 kts 194°
2026-04-17 21:26 50.05553 -1.85161 18842 ft 273 kts 194°
2026-04-17 21:27 50.03706 -1.85600 18729 ft 264 kts 194°
2026-04-17 21:27 50.01916 -1.86021 18608 ft 256 kts 195°
2026-04-17 21:27 50.00182 -1.86426 18490 ft 248 kts 195°
2026-04-17 21:27 49.98502 -1.86819 18347 ft 240 kts 195°
2026-04-17 21:28 49.96850 -1.87212 17866 ft 246 kts 195°
2026-04-17 21:28 49.95100 -1.87642 17025 ft 263 kts 195°
2026-04-17 21:28 49.93204 -1.88112 16487 ft 294 kts 194°
2026-04-17 21:28 49.91055 -1.88648 16120 ft 330 kts 194°
2026-04-17 21:29 49.88730 -1.89211 15714 ft 342 kts 193°
2026-04-17 21:29 49.86365 -1.89758 15313 ft 344 kts 193°
2026-04-17 21:29 49.84000 -1.90293 14909 ft 343 kts 193°
2026-04-17 21:29 49.81637 -1.90829 14506 ft 342 kts 193°
2026-04-17 21:30 49.79291 -1.91368 14096 ft 340 kts 193°
2026-04-17 21:30 49.76953 -1.91909 13655 ft 339 kts 193°
2026-04-17 21:30 49.74626 -1.92452 13249 ft 337 kts 192°
2026-04-17 21:30 49.72312 -1.92994 12825 ft 336 kts 192°
2026-04-17 21:31 49.70003 -1.93535 12422 ft 335 kts 192°
2026-04-17 21:31 49.67698 -1.94073 12012 ft 334 kts 192°
2026-04-17 21:31 49.65432 -1.94602 11591 ft 333 kts 192°
2026-04-17 21:31 49.63145 -1.95134 11174 ft 332 kts 191°
2026-04-17 21:32 49.60861 -1.95663 10740 ft 331 kts 191°
2026-04-17 21:32 49.58587 -1.96191 10309 ft 330 kts 191°
2026-04-17 21:32 49.56319 -1.96718 9845 ft 329 kts 191°
2026-04-17 21:32 49.54076 -1.97240 9413 ft 323 kts 191°
2026-04-17 21:33 49.51871 -1.97753 8952 ft 318 kts 191°
2026-04-17 21:33 49.49699 -1.98258 8500 ft 313 kts 191°
2026-04-17 21:33 49.47558 -1.98757 8064 ft 309 kts 191°
2026-04-17 21:33 49.45439 -1.99248 7607 ft 306 kts 190°
2026-04-17 21:34 49.43343 -1.99732 7161 ft 304 kts 190°
2026-04-17 21:34 49.41262 -2.00212 6704 ft 301 kts 190°
2026-04-17 21:34 49.37146 -2.01163 5756 ft 296 kts 190°
2026-04-17 21:35 49.35122 -2.01628 5256 ft 294 kts 190°
2026-04-17 21:35 49.33089 -2.02094 4645 ft 296 kts 190°
2026-04-17 21:35 49.31060 -2.02560 4135 ft 293 kts 190°
2026-04-17 21:35 49.29072 -2.03016 3650 ft 282 kts 190°
2026-04-17 21:36 49.27186 -2.03447 3202 ft 267 kts 190°
2026-04-17 21:36 49.25391 -2.03859 2777 ft 254 kts 190°
2026-04-17 21:36 49.23680 -2.04262 2350 ft 243 kts 193°
2026-04-17 21:36 49.22256 -2.05362 1996 ft 223 kts 231°
2026-04-17 21:37 49.21709 -2.07426 1733 ft 203 kts 267°
2026-04-17 21:37 49.21610 -2.09485 1481 ft 185 kts 265°
2026-04-17 21:37 49.21470 -2.11329 1262 ft 164 kts 265°
2026-04-17 21:37 49.21337 -2.12977 1050 ft 147 kts 265°
2026-04-17 21:38 49.21214 -2.14471 841 ft 137 kts 264°
2026-04-17 21:38 49.21100 -2.15898 660 ft 134 kts 265°
2026-04-17 21:38 49.20986 -2.17301 479 ft 132 kts 264°
2026-04-17 21:38 49.20871 -2.18691 309 ft 131 kts 265°
2026-04-17 21:39 49.20771 -2.19913 285 ft 89 kts 262°
2026-04-17 21:39 49.20721 -2.20475 284 ft 38 kts 263°
2026-04-17 21:39 49.20672 -2.20702 284 ft 15 kts 196°
2026-04-17 21:39 49.20627 -2.20598 284 ft 13 kts 97°
2026-04-17 21:40 49.20614 -2.20469 284 ft 12 kts 103°
2026-04-17 21:40 49.20590 -2.20357 286 ft 11 kts 108°
2026-04-17 21:40 49.20569 -2.20246 285 ft 14 kts 106°
2026-04-17 21:40 49.20538 -2.20088 284 ft 15 kts 107°
2026-04-17 21:41 49.20504 -2.19944 284 ft 14 kts 127°
2026-04-17 21:41 49.20435 -2.19880 284 ft 11 kts 106°
2026-04-17 21:41 49.20439 -2.19768 284 ft 10 kts 85°
2026-04-17 21:41 49.20443 -2.19667 284 ft 9 kts 94°
2026-04-17 21:42 49.20429 -2.19581 286 ft 8 kts 103°
2026-04-17 21:42 49.20451 -2.19524 284 ft 4 kts 27°
2026-04-17 21:42 49.20467 -2.19515 284 ft 1 kts 17°
2026-04-17 21:42 49.20471 -2.19513 284 ft 0 kts 17°
2026-04-17 21:53 49.20466 -2.19516 284 ft 3 kts 15°
2026-04-17 21:53 49.20464 -2.19517 284 ft 2 kts 14°
2026-04-17 21:53 49.20441 -2.19522 286 ft 3 kts 352°
2026-04-17 21:54 49.20420 -2.19511 286 ft 3 kts 310°
2026-04-17 21:54 49.20411 -2.19481 284 ft 3 kts 284°
2026-04-17 21:54 49.20409 -2.19470 284 ft 0 kts 284°
2026-04-17 21:56 49.20426 -2.19563 284 ft 14 kts 285°
2026-04-17 21:56 49.20441 -2.19722 284 ft 16 kts 265°
2026-04-17 21:57 49.20437 -2.19886 284 ft 16 kts 287°
2026-04-17 21:57 49.20537 -2.19931 284 ft 16 kts 355°
2026-04-17 21:57 49.20601 -2.19895 285 ft 9 kts 65°
2026-04-17 21:57 49.20614 -2.19751 284 ft 18 kts 83°
2026-04-17 21:58 49.20666 -2.19651 284 ft 12 kts 32°
2026-04-17 21:58 49.20774 -2.19636 285 ft 15 kts 337°
2026-04-17 21:58 49.20786 -2.19677 285 ft 0 kts 266°
2026-04-17 21:58 49.20773 -2.19860 285 ft 58 kts 263°
2026-04-17 21:59 49.20688 -2.20922 304 ft 116 kts 266°
2026-04-17 21:59 49.20668 -2.21510 49 ft 2 kts 349°
2026-04-17 21:59 49.20677 -2.21511 48 ft 1 kts 348°
2026-04-17 21:59 49.20668 -2.21508 49 ft 2 kts
2026-04-17 22:00 49.20665 -2.21503 49 ft 1 kts 40°
2026-04-17 22:00 49.20663 -2.21496 49 ft 0 kts 96°
2026-04-17 22:00 49.20662 -2.21491 47 ft 2 kts 100°
2026-04-17 22:00 49.20617 -2.21415 55 ft 19 kts 145°
2026-04-17 22:01 49.20462 -2.21287 80 ft 26 kts 180°
2026-04-17 22:01 49.20396 -2.21237 92 ft 1 kts 60°
2026-04-17 22:01 49.20408 -2.21245 87 ft 8 kts 338°
2026-04-17 22:01 49.20596 -2.21348 63 ft 74 kts 339°
2026-04-17 22:02 49.21341 -2.21789 201 ft 140 kts 336°
2026-04-17 22:02 49.22281 -2.22369 948 ft 148 kts 336°